Weather History for KMHE - December, 2013

Change the Weather History Date:

Saturday, December 14, 2013

  Actual Average Record
Temperature  
Mean Temperature 11 °F 21 °F  
Max Temperature 15 °F 30 °F 65 °F (1998)
Min Temperature 6 °F 12 °F -25 °F (1917)
Degree Days  
Heating Degree Days 54 44  
Month to date heating degree days 743 591  
Since 1 July heating degree days 2251 2159  
Cooling Degree Days 0 0  
Month to date cooling degree days 0 0  
Year to date cooling degree days 946 824  
Moisture  
Dew Point 7 °F    
Average Humidity 83    
Maximum Humidity 92    
Minimum Humidity 73    
Precipitation  
Precipitation T in 0.01 in 1.00 in (1996)
Month to date precipitation 0.49 0.26  
Year to date precipitation 26.15 21.33  
Snow  
Snow T in - 8.00 in (1922)
Month to date snowfall 9.0  
Since 1 July snowfall 13.0  
Snow Depth 4.00 in    
Sea Level Pressure  
Sea Level Pressure 30.26 in    
Wind  
Wind Speed 6 mph (NW)    
Max Wind Speed 13 mph    
Max Gust Speed 15 mph    
Visibility 8 miles    
Events Snow    
T = Trace of Precipitation, MM = Missing Value Source: NWS Daily Summary

Daily Weather History Graph

Daily Weather History Graph

Search for Another Location

Airport or City:

Trip Planner

Search our weather history database for the weather conditions in past years. The results will help you decide how hot, cold, wet, or windy it might be!

Date:

Astronomy

Dec. 14, 2013 Rise Set
Actual Time 7:58 AM CST 4:55 PM CST
Civil Twilight 7:25 AM CST 5:28 PM CST
Nautical Twilight 6:49 AM CST 6:04 PM CST
Astronomical Twilight 6:14 AM CST 6:39 PM CST
Moon 3:21 PM CST (12/14) 5:17 AM CST (12/14)
Length of Visible Light 10h 02m
Length of Day
8h 56m
Waxing Gibbous, 94% of the Moon is Illuminated
Dec 14
Waxing Gibbous
Dec 17
Full
Dec 25
Last Quarter
Jan 1
New
Jan 7
First Quarter

Hourly Weather History & Observations

Time (CST) Temp. Windchill Dew Point Humidity Pressure Visibility Wind Dir Wind Speed Gust Speed Precip Events Conditions
12:12 AM 12.2 °F 0.7 °F 8.6 °F 85% 30.25 in 3.0 mi NNE 8.1 mph - 0.00 in Snow Light Snow
12:22 AM 12.2 °F 0.7 °F 8.6 °F 85% 30.25 in 2.0 mi NNE 8.1 mph - 0.00 in Snow Light Snow
12:30 AM 12.2 °F 1.7 °F 8.6 °F 85% 30.25 in 2.0 mi NNE 6.9 mph - 0.00 in Snow Light Snow
12:53 AM 12.0 °F 1.5 °F 9.0 °F 88% 30.32 in 3.0 mi North 6.9 mph - 0.00 in Snow Light Snow
1:01 AM 12.2 °F 1.7 °F 8.6 °F 85% 30.24 in 2.5 mi NNE 6.9 mph - 0.00 in Snow Light Snow
1:17 AM 12.2 °F 1.7 °F 8.6 °F 85% 30.24 in 3.0 mi North 6.9 mph - 0.00 in Snow Light Snow
1:32 AM 10.4 °F 2.2 °F 8.6 °F 92% 30.24 in 5.0 mi NNE 4.6 mph - 0.00 in Snow Light Snow
1:39 AM 12.2 °F 6.1 °F 8.6 °F 85% 30.23 in 9.0 mi NNE 3.5 mph - 0.00 in   Overcast
1:50 AM 12.2 °F 4.3 °F 8.6 °F 85% 30.23 in 10.0 mi NNE 4.6 mph - 0.00 in   Overcast
1:53 AM 12.0 °F 4.1 °F 8.1 °F 84% 30.31 in 10.0 mi NNE 4.6 mph - 0.00 in   Overcast
2:53 AM 12.0 °F 2.7 °F 7.0 °F 80% 30.31 in 10.0 mi North 5.8 mph - N/A   Overcast
3:53 AM 9.0 °F -3.2 °F 6.1 °F 88% 30.31 in 10.0 mi NW 8.1 mph - N/A   Overcast
4:36 AM 8.6 °F -4.7 °F 5.0 °F 85% 30.23 in 10.0 mi NW 9.2 mph - N/A   Overcast
4:53 AM 8.1 °F -3.2 °F 5.0 °F 87% 30.31 in 10.0 mi NNW 6.9 mph - N/A   Overcast
5:53 AM 7.0 °F -8.3 °F 3.0 °F 84% 30.32 in 10.0 mi NNW 11.5 mph - N/A   Overcast
6:53 AM 6.1 °F -7.8 °F 3.0 °F 87% 30.33 in 10.0 mi NNW 9.2 mph - N/A   Overcast
7:53 AM 6.1 °F -8.7 °F 1.9 °F 83% 30.33 in 10.0 mi NW 10.4 mph - N/A   Overcast
8:53 AM 6.1 °F -7.8 °F 1.9 °F 83% 30.34 in 4.0 mi NW 9.2 mph - 0.00 in Snow Light Snow
9:53 AM 6.1 °F -2.8 °F 1.0 °F 80% 30.35 in 4.0 mi NNW 4.6 mph - 0.00 in Snow Light Snow
10:53 AM 7.0 °F -5.7 °F 1.9 °F 80% 30.35 in 7.0 mi NW 8.1 mph - 0.00 in   Overcast
11:32 AM 8.6 °F -4.7 °F 3.2 °F 79% 30.25 in 2.5 mi NW 9.2 mph - 0.00 in Snow Light Snow
11:39 AM 8.6 °F -3.7 °F 3.2 °F 79% 30.25 in 4.0 mi NW 8.1 mph - 0.00 in Snow Light Snow
11:53 AM 8.1 °F -3.2 °F 3.0 °F 80% 30.33 in 9.0 mi WNW 6.9 mph - 0.00 in   Mostly Cloudy
12:53 PM 10.0 °F -0.9 °F 5.0 °F 80% 30.30 in 10.0 mi NW 6.9 mph - N/A   Overcast
1:49 PM 12.2 °F 1.7 °F 6.8 °F 79% 30.21 in 10.0 mi WNW 6.9 mph - N/A   Overcast
1:53 PM 12.0 °F 0.5 °F 6.1 °F 77% 30.29 in 10.0 mi WNW 8.1 mph - N/A   Overcast
2:53 PM 14.0 °F 2.0 °F 7.0 °F 74% 30.26 in 10.0 mi WNW 9.2 mph - N/A   Overcast
3:53 PM 15.1 °F 6.4 °F 8.1 °F 74% 30.26 in 10.0 mi WNW 5.8 mph - N/A   Overcast
4:53 PM 14.0 °F 6.5 °F 8.1 °F 77% 30.25 in 10.0 mi WSW 4.6 mph - N/A   Scattered Clouds
5:53 PM 12.0 °F 4.1 °F 8.1 °F 84% 30.25 in 10.0 mi WSW 4.6 mph - N/A   Clear
6:27 PM 10.4 °F 0.8 °F 8.6 °F 92% 30.17 in 10.0 mi West 5.8 mph - N/A   Mostly Cloudy
6:39 PM 12.2 °F 2.9 °F 8.6 °F 85% 30.17 in 10.0 mi West 5.8 mph - N/A   Scattered Clouds
6:53 PM 12.9 °F 5.2 °F 9.0 °F 84% 30.25 in 10.0 mi West 4.6 mph - N/A   Clear
7:53 PM 12.9 °F 6.9 °F 10.0 °F 88% 30.23 in 10.0 mi West 3.5 mph - N/A   Overcast
8:53 PM 12.9 °F - 10.0 °F 88% 30.23 in 10.0 mi Calm Calm - N/A   Partly Cloudy
9:53 PM 10.9 °F - 8.1 °F 88% 30.21 in 9.0 mi Calm Calm - N/A   Mostly Cloudy
10:53 PM 12.0 °F - 10.0 °F 92% 30.20 in 9.0 mi Calm Calm - N/A   Overcast
11:53 PM 12.9 °F - 9.0 °F 84% 30.19 in 9.0 mi Calm Calm - N/A   Overcast